WD9EKA Weather Reports


Display with metric or nautical units.
time (UTC)temp
F
wind
direction
speed
MPH
gust
MPH
rain 1hr
in
rain 24hr
in
rain mn
in
humidity
%
barometer
mb
20260506051133 44 271 0.0 0.0 0.01 1.20 0.00 99 1006.3
20260506050533 44 270 0.0 0.0 0.01 1.20 0.00 99 1006.0
20260506044734 44 271 0.0 0.0 0.03 1.20 1.20 99 1006.2
20260506044134 44 271 0.0 0.0 0.04 1.20 1.20 99 1006.3
20260506043533 44 271 0.0 0.0 0.04 1.20 1.20 99 1006.4
20260506042934 44 289 0.0 0.0 0.04 1.20 1.20 99 1006.5
20260506042334 44 289 0.0 0.0 0.04 1.19 1.19 99 1006.2
20260506041734 44 163 0.0 0.0 0.05 1.19 1.19 99 1006.4
20260506041134 43 75 0.0 0.0 0.05 1.19 1.19 99 1006.4
20260506035934 44 66 0.0 0.0 0.04 1.18 1.18 99 1006.4
20260506035333 44 67 0.0 0.0 0.03 1.17 1.17 99 1006.7
20260506034733 43 67 0.0 0.0 0.03 1.17 1.17 99 1006.5
20260506034134 43 67 0.0 0.0 0.02 1.16 1.16 99 1007.0
20260506033534 43 67 0.0 1.0 0.02 1.16 1.16 99 1006.8
20260506032933 43 67 1.0 1.0 0.03 1.16 1.16 99 1006.4
20260506032334 43 35 0.0 0.0 0.02 1.15 1.15 99 1006.3
20260506031733 44 7 0.0 0.0 0.02 1.14 1.14 99 1006.3
20260506031134 44 341 0.0 0.0 0.02 1.14 1.14 99 1006.1
20260506030534 43 341 0.0 0.0 0.02 1.14 1.14 99 1006.2
20260506025933 44 281 0.0 0.0 0.04 1.14 1.14 99 1005.7
20260506025333 44 291 0.0 0.0 0.07 1.14 1.14 99 1005.6
20260506024733 44 280 0.0 0.0 0.10 1.14 1.14 99 1005.9
20260506024133 44 104 0.0 0.0 0.11 1.14 1.14 99 1005.7
20260506023534 44 203 0.0 0.0 0.12 1.14 1.14 99 1005.7
20260506022934 44 231 0.0 0.0 0.11 1.13 1.13 99 1005.3
20260506022333 44 354 2.0 3.0 0.11 1.13 1.13 99 1005.0
20260506021734 44 12 2.0 2.0 0.10 1.12 1.12 99 1004.8
20260506021133 44 64 2.0 3.0 0.11 1.12 1.12 99 1005.4
20260506020533 44 108 0.0 2.0 0.10 1.11 1.11 99 1005.5
20260506015933 45 242 1.0 2.0 0.09 1.10 1.10 99 1005.0
20260506015334 47 29 1.0 2.0 0.07 1.07 1.07 99 1005.3
20260506014733 47 259 0.0 0.0 0.08 1.04 1.04 99 1005.5
20260506014134 47 286 0.0 0.0 0.08 1.03 1.03 99 1005.1
20260506013534 47 305 3.0 4.0 0.09 1.02 1.02 99 1004.1
20260506012934 47 103 0.0 0.0 0.09 1.02 1.02 99 1004.2
20260506012334 47 145 0.0 0.0 0.10 1.02 1.02 99 1003.9
20260506011734 47 220 0.0 0.0 0.10 1.02 1.02 99 1004.0
20260506011133 47 316 0.0 0.0 0.09 1.01 1.01 99 1004.3
20260506010628 47 109 0.0 0.0 0.10 1.01 1.01 99 1004.1
20260506010108 47 270 0.0 0.0 0.10 1.01 1.01 99 1004.7
20260506005539 47 138 0.0 0.0 0.09 1.00 1.00 99 1004.0
20260506005034 48 102 0.0 0.0 0.07 0.98 0.98 99 1004.4
20260506004434 48 232 3.0 3.0 0.04 0.95 0.95 99 1005.4
20260506003833 48 118 0.0 0.0 0.02 0.93 0.93 99 1003.9
20260506003233 48 1 0.0 0.0 0.02 0.93 0.93 99 1004.0
20260506002633 48 76 0.0 0.0 0.02 0.92 0.92 99 1003.4
20260506002033 48 127 0.0 0.0 0.02 0.92 0.92 99 1003.4
20260506001434 48 116 0.0 0.0 0.02 0.92 0.92 99 1003.5
20260506000834 48 68 0.0 0.0 0.02 0.92 0.92 99 1003.9
20260506000234 48 36 0.0 0.0 0.02 0.91 0.91 99 1004.1
20260505235633 48 44 0.0 0.0 0.03 0.91 0.91 99 1003.8
20260505235033 48 158 0.0 0.0 0.03 0.91 0.91 99 1003.9
20260505234433 48 313 0.0 0.0 0.03 0.91 0.91 99 1004.4
20260505233234 48 63 0.0 0.0 0.05 0.91 0.91 99 1004.1
20260505232033 48 359 0.0 0.0 0.05 0.90 0.90 99 1004.1
20260505231434 48 260 0.0 0.0 0.05 0.90 0.90 99 1004.1
20260505230833 48 354 0.0 0.0 0.06 0.90 0.90 99 1003.9
20260505230233 48 127 0.0 1.0 0.05 0.88 0.88 99 1004.0
20260505225634 48 197 0.0 0.0 0.06 0.88 0.88 99 1004.0
20260505225034 48 62 0.0 0.0 0.07 0.88 0.88 99 1004.3
20260505224433 48 358 0.0 0.0 0.08 0.88 0.88 99 1004.0
20260505223833 48 114 0.0 0.0 0.08 0.87 0.87 99 1004.0
20260505223234 48 346 0.0 0.0 0.08 0.86 0.86 99 1004.0
20260505222634 48 236 0.0 0.0 0.09 0.86 0.86 99 1004.2
20260505222033 48 256 0.0 1.0 0.08 0.85 0.85 99 1004.2
20260505221433 48 68 0.0 2.0 0.09 0.85 0.85 99 1004.2
20260505220834 48 262 0.0 0.0 0.09 0.84 0.84 99 1004.4
20260505220233 48 223 0.0 0.0 0.09 0.83 0.83 99 1004.6
20260505215634 48 212 0.0 0.0 0.09 0.82 0.82 99 1004.5
20260505215033 48 251 0.0 0.0 0.09 0.81 0.81 99 1004.4
20260505214433 49 65 5.0 9.0 0.08 0.80 0.80 99 1004.4
20260505213933 49 348 2.0 3.0 0.08 0.79 0.79 99 1004.3
20260505213413 49 246 0.0 0.0 0.07 0.78 0.78 99 1004.1
20260505212852 49 71 0.0 1.0 0.07 0.78 0.78 99 1004.0
20260505212334 49 171 0.0 0.0 0.06 0.77 0.77 99 1004.0
20260505211829 49 298 0.0 0.0 0.06 0.76 0.76 99 1003.6
20260505211253 49 294 4.0 6.0 0.06 0.76 0.76 99 1004.1
20260505210734 50 356 0.0 0.0 0.05 0.75 0.75 99 1004.4
20260505210133 49 76 0.0 0.0 0.05 0.74 0.74 99 1004.2
20260505205533 49 78 0.0 0.0 0.04 0.73 0.73 99 1004.3
20260505205029 49 73 0.0 1.0 0.03 0.72 0.72 99 1004.4
20260505204509 49 322 0.0 1.0 0.03 0.72 0.72 99 1004.7
20260505203949 49 257 0.0 0.0 0.02 0.71 0.71 99 1004.7
20260505203429 49 258 0.0 0.0 0.02 0.71 0.71 99 1004.8
20260505202909 49 266 0.0 0.0 0.02 0.71 0.71 99 1004.8
20260505202349 49 286 0.0 0.0 0.02 0.71 0.71 99 1004.6
20260505201833 49 257 0.0 0.0 0.01 0.70 0.70 99 1004.6
20260505201234 49 277 0.0 0.0 0.01 0.70 0.70 99 1004.7
20260505200633 48 282 0.0 0.0 0.00 0.69 0.69 99 1004.7
20260505200125 48 320 0.0 0.0 0.00 0.69 0.69 99 1004.8
20260505195605 48 238 0.0 2.0 0.00 0.69 0.69 99 1004.7
20260505195045 49 313 0.0 0.0 0.00 0.69 0.69 99 1004.8
20260505194433 49 271 0.0 0.0 0.00 0.69 0.69 99 1004.8
20260505193833 49 234 0.0 0.0 0.00 0.69 0.69 99 1004.6
20260505193233 49 269 0.0 0.0 0.00 0.69 0.69 99 1004.5
20260505192634 50 293 0.0 0.0 0.00 0.69 0.69 99 1004.3
20260505192125 50 312 0.0 1.0 0.00 0.69 0.69 99 1004.5
20260505191606 50 250 0.0 0.0 0.00 0.69 0.69 99 1004.5
20260505191034 50 43 0.0 0.0 0.00 0.69 0.69 99 1004.3
20260505190433 50 256 0.0 0.0 0.00 0.69 0.69 99 1004.3
20260505185933 50 246 0.0 0.0 0.00 0.69 0.69 99 1004.5
20260505185413 50 304 0.0 0.0 0.00 0.69 0.69 99 1004.6
20260505184334 50 245 0.0 0.0 0.00 0.69 0.69 99 1004.4
20260505183734 50 255 0.0 0.0 0.00 0.69 0.69 99 1004.3
20260505183221 50 261 0.0 0.0 0.00 0.69 0.69 99 1004.3
20260505182701 50 261 0.0 0.0 0.00 0.69 0.69 99 1004.2
20260505182141 50 261 0.0 0.0 0.00 0.69 0.69 99 1004.3
20260505181634 50 292 0.0 0.0 0.00 0.69 0.69 99 1004.2
20260505181033 50 292 0.0 0.0 0.00 0.69 0.69 99 1004.4
20260505180433 49 292 0.0 0.0 0.00 0.69 0.69 99 1004.2
20260505175833 50 292 0.0 0.0 0.00 0.69 0.69 99 1004.3
20260505175233 50 292 0.0 0.0 0.00 0.69 0.69 99 1004.5
20260505174634 49 316 0.0 0.0 0.00 0.69 0.69 99 1004.4
20260505174125 49 316 0.0 0.0 0.00 0.69 0.69 99 1004.3
20260505173606 49 76 0.0 0.0 0.00 0.69 0.69 99 1004.4
20260505173045 49 156 0.0 0.0 0.00 0.69 0.69 99 1004.5
20260505172433 50 4 0.0 0.0 0.01 0.69 0.69 99 1004.3
20260505171917 50 321 0.0 1.0 0.01 0.69 0.69 99 1004.3
20260505171357 50 192 1.0 2.0 0.02 0.69 0.69 99 1004.2
20260505170834 50 80 0.0 0.0 0.02 0.69 0.69 99 1004.1
20260505165725 49 85 0.0 0.0 0.03 0.70 0.69 99 1003.5
20260505164645 49 87 0.0 0.0 0.06 0.71 0.69 99 1003.7
20260505164133 49 73 0.0 0.0 0.07 0.71 0.69 99 1003.7
20260505163621 49 358 0.0 0.0 0.08 0.71 0.69 99 1004.0
20260505163101 48 73 2.0 4.0 0.10 0.71 0.69 99 1003.9
20260505162541 48 113 0.0 0.0 0.11 0.72 0.69 99 1004.3
20260505162034 48 139 0.0 0.0 0.12 0.71 0.68 99 1004.3
20260505161517 48 153 0.0 1.0 0.12 0.70 0.67 99 1004.2
20260505160957 48 91 0.0 0.0 0.12 0.70 0.67 99 1004.1
20260505160434 48 96 0.0 0.0 0.12 0.70 0.66 99 1004.4
20260505153233 48 302 0.0 0.0 0.06 0.64 0.60 99 1004.9
20260505152717 48 265 0.0 0.0 0.05 0.62 0.58 99 1005.0
20260505152157 48 359 0.0 0.0 0.04 0.60 0.56 99 1004.5
20260505151637 48 283 1.0 3.0 0.04 0.59 0.55 99 1005.0
20260505151117 49 7 0.0 0.0 0.04 0.60 0.55 99 1004.7
20260505150557 49 289 0.0 0.0 0.04 0.61 0.55 99 1004.8
20260505140157 55 290 0.0 1.0 0.11 0.57 0.51 99 1004.2
20260505124717 56 256 0.0 0.0 0.00 0.46 0.40 99 1003.6
20260505124157 56 256 0.0 0.0 0.00 0.46 0.40 99 1004.0
20260505123637 56 256 0.0 0.0 0.00 0.46 0.40 99 1003.9
20260505123117 56 256 0.0 0.0 0.00 0.46 0.40 99 1003.9
20260505122557 55 256 0.0 0.0 0.00 0.46 0.40 99 1003.9
20260505122037 55 256 0.0 0.0 0.00 0.46 0.40 99 1004.0
20260505121517 55 256 0.0 0.0 0.00 0.46 0.40 99 1004.0
20260505120958 55 255 0.0 0.0 0.00 0.46 0.40 99 1003.9
20260505120437 55 256 0.0 0.0 0.00 0.46 0.40 99 1003.8
20260505115917 55 256 0.0 0.0 0.00 0.46 0.40 99 1003.7
20260505115358 55 256 0.0 0.0 0.00 0.46 0.40 99 1003.5
20260505114838 55 256 0.0 0.0 0.00 0.46 0.40 99 1003.6
20260505114318 54 256 0.0 0.0 0.00 0.46 0.40 99 1003.7
20260505113757 54 256 0.0 0.0 0.00 0.46 0.40 99 1003.3
20260505113238 54 256 0.0 0.0 0.00 0.46 0.40 99 1003.1
20260505112718 54 256 0.0 0.0 0.00 0.46 0.40 99 1002.6
20260505112158 54 256 0.0 0.0 0.00 0.46 0.40 99 1002.6
20260505111638 54 256 0.0 0.0 0.00 0.46 0.40 99 1002.4
20260505111118 54 256 0.0 0.0 0.00 0.46 0.40 99 1002.5
20260505110557 54 256 0.0 0.0 0.00 0.46 0.40 99 1002.6
20260505101758 54 202 0.0 0.0 0.00 0.46 0.40 99 1001.6
20260505101237 54 203 0.0 0.0 0.00 0.46 0.40 99 1001.2
20260505100717 54 180 0.0 0.0 0.01 0.46 0.40 99 1001.3
20260505100158 54 161 0.0 0.0 0.01 0.46 0.40 99 1001.2
20260505095637 54 216 0.0 0.0 0.01 0.46 0.40 99 1001.4
20260505095102 54 236 3.0 4.0 0.02 0.46 0.40 99 1001.6
20260505094542 54 226 0.0 0.0 0.03 0.46 0.40 99 1001.3
20260505094022 54 177 0.0 0.0 0.04 0.46 0.40 99 1000.7
20260505093446 54 140 0.0 1.0 0.06 0.46 0.40 99 1000.3
20260505092926 54 198 0.0 0.0 0.07 0.46 0.40 99 1000.9
20260505092406 54 197 1.0 2.0 0.08 0.46 0.40 99 1001.3
20260505091327 55 220 1.0 2.0 0.11 0.46 0.40 99 1001.3
20260505090806 54 202 0.0 1.0 0.11 0.45 0.39 99 1001.2
20260505090245 54 164 0.0 1.0 0.12 0.45 0.39 99 1001.4
20260505085726 54 170 4.0 5.0 0.12 0.45 0.39 99 1001.4
20260505085206 54 163 3.0 4.0 0.13 0.44 0.38 99 1002.1
20260505084646 54 237 4.0 5.0 0.14 0.43 0.37 99 1002.5
20260505084126 54 216 4.0 6.0 0.13 0.42 0.36 99 1002.5
20260505083606 54 209 2.0 5.0 0.14 0.41 0.35 99 1002.3
20260505083046 55 193 2.0 4.0 0.14 0.39 0.33 99 1002.6
20260505082526 55 220 3.0 4.0 0.15 0.38 0.32 99 1002.6
20260505082008 55 231 9.0 11.0 0.15 0.38 0.32 99 1003.0
20260505081446 55 233 5.0 6.0 0.13 0.35 0.29 99 1002.5
20260505080934 55 210 0.0 0.0 0.13 0.34 0.28 99 1002.2
20260505080334 55 140 0.0 0.0 0.13 0.33 0.27 99 1002.0
20260505075733 55 130 1.0 2.0 0.14 0.33 0.27 99 1001.4
20260505075133 55 147 0.0 0.0 0.13 0.31 0.25 99 1001.7
20260505073934 55 166 4.0 6.0 0.21 0.28 0.22 99 1003.0
20260505073334 54 207 0.0 0.0 0.19 0.26 0.20 99 1003.0
20260505072734 55 112 0.0 0.0 0.18 0.24 0.18 99 1002.9
20260505072134 55 118 0.0 0.0 0.17 0.23 0.17 98 1002.5
20260505071533 55 307 0.0 0.0 0.16 0.23 0.16 97 1002.8
20260505070934 55 272 1.0 1.0 0.14 0.22 0.14 97 1003.0
20260505070422 55 357 0.0 0.0 0.14 0.22 0.14 96 1003.1
20260505065903 55 357 0.0 0.0 0.14 0.22 0.14 94 1002.9
20260505065342 55 291 0.0 0.0 0.12 0.20 0.12 91 1003.5
20260505064834 56 292 0.0 1.0 0.09 0.17 0.09 90 1003.6
20260505064233 57 296 0.0 1.0 0.02 0.10 0.02 88 1004.0
20260505063633 58 40 1.0 2.0 0.01 0.09 0.01 85 1003.5
20260505063033 59 306 1.0 2.0 0.01 0.09 0.01 80 1004.0
20260505062433 60 21 11.0 19.0 0.00 0.08 0.00 75 1003.3
20260505061834 61 282 1.0 2.0 0.00 0.08 0.00 77 1002.5
20260505061326 63 337 3.0 4.0 0.00 0.08 0.00 76 1001.9
20260505060806 65 111 0.0 1.0 0.00 0.08 0.00 73 1002.0
20260505060246 67 243 7.0 10.0 0.00 0.08 0.00 67 1001.5
20260505055726 67 238 6.0 8.0 0.00 0.08 0.00 65 999.8